Change the Weather History Date:

Wednesday, April 2, 2014

  Actual Average Record
Temperature  
Mean Temperature 62 °F -  
Max Temperature 69 °F 68 °F 78 °F (1953)
Min Temperature 55 °F 47 °F 33 °F (1989)
Degree Days  
Heating Degree Days 3    
Growing Degree Days 12 (Base 50)    
Moisture  
Dew Point 54 °F    
Average Humidity 75    
Maximum Humidity 90    
Minimum Humidity 56    
Precipitation  
Precipitation 0.00 in - - ()
Sea Level Pressure  
Sea Level Pressure 30.09 in    
Wind  
Wind Speed 11 mph (SW)    
Max Wind Speed 15 mph    
Max Gust Speed -    
Visibility 9 miles    
Events      
Averages and records for this station are not official NWS values.
T = Trace of Precipitation, MM = Missing Value Source: NWS Daily Summary

Daily Weather History Graph

Daily Weather History Graph

Search for Another Location

Airport or City:

Trip Planner

Search our weather history database for the weather conditions in past years. The results will help you decide how hot, cold, wet, or windy it might be!

Date:

Astronomy

Apr. 02, 2014 Rise Set
Actual Time 6:52 AM EDT 7:28 PM EDT
Civil Twilight 6:26 AM EDT 7:54 PM EDT
Nautical Twilight 5:56 AM EDT 8:24 PM EDT
Astronomical Twilight 5:26 AM EDT 8:54 PM EDT
Moon 8:41 AM EDT (4/2) 10:42 PM EDT (4/2)
Length of Visible Light 13h 27m
Length of Day
12h 36m
Waxing Crescent, 10% of the Moon is Illuminated
Apr 2
Waxing Crescent
Apr 7
First Quarter
Apr 15
Full
Apr 22
Last Quarter
Apr 29
New

Hourly Weather History & Observations

Time (EDT) Temp. Dew Point Humidity Pressure Visibility Wind Dir Wind Speed Gust Speed Precip Events Conditions
12:58 AM 57.9 °F 55.0 °F 90% 30.09 in 10.0 mi SSW 10.4 mph - N/A   Unknown
1:58 AM 57.9 °F 54.0 °F 87% 30.09 in 10.0 mi SW 11.5 mph - N/A   Clear
2:58 AM 57.9 °F 54.0 °F 87% 30.09 in 10.0 mi WSW 9.2 mph - N/A   Clear
3:58 AM 57.9 °F 54.0 °F 87% 30.08 in 10.0 mi SW 10.4 mph - N/A   Clear
4:58 AM 57.0 °F 53.1 °F 87% 30.08 in 10.0 mi SW 10.4 mph - N/A   Clear
5:58 AM 55.9 °F 53.1 °F 90% 30.09 in 9.0 mi SW 9.2 mph - N/A   Clear
6:58 AM 55.9 °F 52.0 °F 87% 30.11 in 7.0 mi North - - N/A   Clear
8:58 AM 62.1 °F 53.1 °F 72% 30.12 in 9.0 mi WSW 9.2 mph - N/A   Clear
9:58 AM 63.0 °F 52.0 °F 67% 30.13 in 9.0 mi SW 10.4 mph - N/A   Clear
10:58 AM 64.9 °F 52.0 °F 63% 30.12 in 9.0 mi SW 13.8 mph - N/A   Clear
11:58 AM 66.0 °F 54.0 °F 65% 30.12 in 9.0 mi SW 15.0 mph - N/A   Clear
12:58 PM 66.9 °F 54.0 °F 63% 30.12 in 9.0 mi SW 12.7 mph - N/A   Clear
1:58 PM 68.0 °F 55.9 °F 65% 30.09 in 9.0 mi SSW 15.0 mph - N/A   Clear
2:58 PM 69.1 °F 54.0 °F 58% 30.07 in 9.0 mi SW 15.0 mph - N/A   Clear
3:58 PM 68.0 °F 52.0 °F 56% 30.06 in 9.0 mi SW 11.5 mph - N/A   Clear
4:58 PM 66.9 °F 54.0 °F 63% 30.05 in 8.0 mi SW 11.5 mph - N/A   Clear
5:58 PM 66.0 °F 54.0 °F 65% 30.05 in 8.0 mi SW 15.0 mph - N/A   Clear
6:58 PM 63.0 °F 55.0 °F 75% 30.06 in 8.0 mi SW 11.5 mph - N/A   Clear
7:58 PM 61.0 °F 55.9 °F 83% 30.07 in 9.0 mi SW 11.5 mph - N/A   Clear
8:58 PM 60.1 °F 55.9 °F 86% 30.09 in 8.0 mi SSW 10.4 mph - N/A   Clear
9:58 PM 61.0 °F 55.0 °F 81% 30.08 in 9.0 mi SW 13.8 mph - N/A   Clear
10:58 PM 62.1 °F 54.0 °F 75% 30.09 in 10.0 mi WSW 11.5 mph - N/A   Clear
11:58 PM 61.0 °F 54.0 °F 78% 30.08 in 10.0 mi SW 13.8 mph - N/A   Clear